Time,TemperatureF,DewpointF,PressureIn,WindDirection,WindDirectionDegrees,WindSpeedMPH,WindSpeedGustMPH,Humidity,HourlyPrecipIn,Conditions,Clouds,dailyrainin,SoftwareType,DateUTC
2013-02-28 00:02:00,67.0,64.0,29.96,NW,304,4.0,8.0,91,-99.99,,,-99.99,,2013-02-28 05:02:00,
2013-02-28 00:11:00,67.0,64.0,29.96,NW,304,4.0,8.0,91,-99.99,,,-99.99,,2013-02-28 05:11:00,
2013-02-28 00:22:00,67.0,64.0,29.96,NW,304,4.0,8.0,91,-99.99,,,-99.99,,2013-02-28 05:22:00,
2013-02-28 00:32:00,67.0,64.0,29.96,NW,304,4.0,8.0,91,-99.99,,,-99.99,,2013-02-28 05:32:00,
2013-02-28 00:42:00,67.0,64.0,29.96,NW,304,4.0,8.0,91,-99.99,,,-99.99,,2013-02-28 05:42:00,
2013-02-28 00:52:00,67.0,64.0,29.96,NW,304,4.0,8.0,91,-99.99,,,-99.99,,2013-02-28 05:52:00,
2013-02-28 01:01:00,67.0,64.0,29.96,NW,304,4.0,8.0,91,-99.99,,,-99.99,,2013-02-28 06:01:00,
2013-02-28 01:11:00,67.0,64.0,29.96,NW,304,4.0,8.0,91,-99.99,,,-99.99,,2013-02-28 06:11:00,
2013-02-28 01:22:00,67.0,64.0,29.96,NW,304,4.0,8.0,91,-99.99,,,-99.99,,2013-02-28 06:22:00,
2013-02-28 01:32:00,67.0,64.0,29.96,NW,304,4.0,8.0,91,-99.99,,,-99.99,,2013-02-28 06:32:00,
2013-02-28 01:42:00,67.0,64.0,29.96,NW,304,4.0,8.0,91,-99.99,,,-99.99,,2013-02-28 06:42:00,
2013-02-28 01:52:00,67.0,64.0,29.96,NW,304,4.0,8.0,91,-99.99,,,-99.99,,2013-02-28 06:52:00,
2013-02-28 02:01:00,67.0,64.0,29.96,NW,304,4.0,8.0,91,-99.99,,,-99.99,,2013-02-28 07:01:00,
2013-02-28 02:11:00,67.0,64.0,29.96,NW,304,4.0,8.0,91,-99.99,,,-99.99,,2013-02-28 07:11:00,
2013-02-28 02:21:00,67.0,64.0,29.96,NW,304,4.0,8.0,91,-99.99,,,-99.99,,2013-02-28 07:21:00,
2013-02-28 02:32:00,67.0,64.0,29.96,NW,304,4.0,8.0,91,-99.99,,,-99.99,,2013-02-28 07:32:00,
2013-02-28 02:42:00,67.0,64.0,29.96,NW,304,4.0,8.0,91,-99.99,,,-99.99,,2013-02-28 07:42:00,
2013-02-28 02:52:00,67.0,64.0,29.96,NW,304,4.0,8.0,91,-99.99,,,-99.99,,2013-02-28 07:52:00,
2013-02-28 03:01:00,67.0,64.0,29.96,NW,304,4.0,8.0,91,-99.99,,,-99.99,,2013-02-28 08:01:00,
2013-02-28 03:11:00,67.0,64.0,29.96,NW,304,4.0,8.0,91,-99.99,,,-99.99,,2013-02-28 08:11:00,
2013-02-28 03:22:00,67.0,64.0,29.96,NW,304,4.0,8.0,91,-99.99,,,-99.99,,2013-02-28 08:22:00,
2013-02-28 03:32:00,67.0,64.0,29.96,NW,304,4.0,8.0,91,-99.99,,,-99.99,,2013-02-28 08:32:00,
2013-02-28 03:42:00,67.0,64.0,29.96,NW,304,4.0,8.0,91,-99.99,,,-99.99,,2013-02-28 08:42:00,
2013-02-28 03:53:00,67.0,64.0,29.96,NW,304,4.0,8.0,91,-99.99,,,-99.99,,2013-02-28 08:53:00,
2013-02-28 04:03:00,67.0,64.0,29.96,NW,304,4.0,8.0,91,-99.99,,,-99.99,,2013-02-28 09:03:00,
2013-02-28 04:12:00,67.0,64.0,29.96,NW,304,4.0,8.0,91,-99.99,,,-99.99,,2013-02-28 09:12:00,
2013-02-28 04:22:00,67.0,64.0,29.96,NW,304,4.0,8.0,91,-99.99,,,-99.99,,2013-02-28 09:22:00,
2013-02-28 04:32:00,67.0,64.0,29.96,NW,304,4.0,8.0,91,-99.99,,,-99.99,,2013-02-28 09:32:00,
2013-02-28 04:42:00,67.0,64.0,29.96,NW,304,4.0,8.0,91,-99.99,,,-99.99,,2013-02-28 09:42:00,
2013-02-28 04:52:00,67.0,64.0,29.96,NW,304,4.0,8.0,91,-99.99,,,-99.99,,2013-02-28 09:52:00,
2013-02-28 05:02:00,67.0,64.0,29.96,NW,304,4.0,8.0,91,-99.99,,,-99.99,,2013-02-28 10:02:00,
2013-02-28 05:11:00,67.0,64.0,29.96,NW,304,4.0,8.0,91,-99.99,,,-99.99,,2013-02-28 10:11:00,
2013-02-28 05:22:00,67.0,64.0,29.96,NW,304,4.0,8.0,91,-99.99,,,-99.99,,2013-02-28 10:22:00,
2013-02-28 05:32:00,67.0,64.0,29.96,NW,304,4.0,8.0,91,-99.99,,,-99.99,,2013-02-28 10:32:00,
2013-02-28 05:42:00,67.0,64.0,29.96,NW,304,4.0,8.0,91,-99.99,,,-99.99,,2013-02-28 10:42:00,
2013-02-28 05:52:00,67.0,64.0,29.96,NW,304,4.0,8.0,91,-99.99,,,-99.99,,2013-02-28 10:52:00,
2013-02-28 06:02:00,67.0,64.0,29.96,NW,304,4.0,8.0,91,-99.99,,,-99.99,,2013-02-28 11:02:00,
2013-02-28 06:22:00,67.0,64.0,29.96,NW,304,4.0,8.0,91,-99.99,,,-99.99,,2013-02-28 11:22:00,
2013-02-28 06:32:00,67.0,64.0,29.96,NW,304,4.0,8.0,91,-99.99,,,-99.99,,2013-02-28 11:32:00,
2013-02-28 06:52:00,67.0,64.0,29.96,NW,304,4.0,8.0,91,-99.99,,,-99.99,,2013-02-28 11:52:00,
2013-02-28 07:02:00,67.0,64.0,29.96,NW,304,4.0,8.0,91,-99.99,,,-99.99,,2013-02-28 12:02:00,
2013-02-28 07:22:00,67.0,64.0,29.96,NW,304,4.0,8.0,91,-99.99,,,-99.99,,2013-02-28 12:22:00,
2013-02-28 07:32:00,67.0,64.0,29.96,NW,304,4.0,8.0,91,-99.99,,,-99.99,,2013-02-28 12:32:00,
2013-02-28 07:52:00,67.0,64.0,29.96,NW,304,4.0,8.0,91,-99.99,,,-99.99,,2013-02-28 12:52:00,
2013-02-28 08:02:00,67.0,64.0,29.96,NW,304,4.0,8.0,91,-99.99,,,-99.99,,2013-02-28 13:02:00,
2013-02-28 08:11:00,67.0,64.0,29.96,NW,304,4.0,8.0,91,-99.99,,,-99.99,,2013-02-28 13:11:00,
2013-02-28 08:22:00,67.0,64.0,29.96,NW,304,4.0,8.0,91,-99.99,,,-99.99,,2013-02-28 13:22:00,
2013-02-28 08:32:00,67.0,64.0,29.96,NW,304,4.0,8.0,91,-99.99,,,-99.99,,2013-02-28 13:32:00,
2013-02-28 08:42:00,67.0,64.0,29.96,NW,304,4.0,8.0,91,-99.99,,,-99.99,,2013-02-28 13:42:00,
2013-02-28 08:52:00,67.0,64.0,29.96,NW,304,4.0,8.0,91,-99.99,,,-99.99,,2013-02-28 13:52:00,
2013-02-28 09:01:00,67.0,64.0,29.96,NW,304,4.0,8.0,91,-99.99,,,-99.99,,2013-02-28 14:01:00,
2013-02-28 09:11:00,67.0,64.0,29.96,NW,304,4.0,8.0,91,-99.99,,,-99.99,,2013-02-28 14:11:00,
2013-02-28 09:22:00,67.0,64.0,29.96,NW,304,4.0,8.0,91,-99.99,,,-99.99,,2013-02-28 14:22:00,
2013-02-28 09:32:00,67.0,64.0,29.96,NW,304,4.0,8.0,91,-99.99,,,-99.99,,2013-02-28 14:32:00,
2013-02-28 09:42:00,67.0,64.0,29.96,NW,304,4.0,8.0,91,-99.99,,,-99.99,,2013-02-28 14:42:00,
2013-02-28 09:52:00,67.0,64.0,29.96,NW,304,4.0,8.0,91,-99.99,,,-99.99,,2013-02-28 14:52:00,
2013-02-28 10:02:00,67.0,64.0,29.96,NW,304,4.0,8.0,91,-99.99,,,-99.99,,2013-02-28 15:02:00,
2013-02-28 10:11:00,67.0,64.0,29.96,NW,304,4.0,8.0,91,-99.99,,,-99.99,,2013-02-28 15:11:00,
2013-02-28 10:22:00,67.0,64.0,29.96,NW,304,4.0,8.0,91,-99.99,,,-99.99,,2013-02-28 15:22:00,
2013-02-28 10:32:00,67.0,64.0,29.96,NW,304,4.0,8.0,91,-99.99,,,-99.99,,2013-02-28 15:32:00,
2013-02-28 10:42:00,67.0,64.0,29.96,NW,304,4.0,8.0,91,-99.99,,,-99.99,,2013-02-28 15:42:00,
2013-02-28 10:52:00,67.0,64.0,29.96,NW,304,4.0,8.0,91,-99.99,,,-99.99,,2013-02-28 15:52:00,
2013-02-28 11:02:00,67.0,64.0,29.96,NW,304,4.0,8.0,91,-99.99,,,-99.99,,2013-02-28 16:02:00,
2013-02-28 11:12:00,67.0,64.0,29.96,NW,304,4.0,8.0,91,-99.99,,,-99.99,,2013-02-28 16:12:00,
2013-02-28 11:22:00,67.0,64.0,29.96,NW,304,4.0,8.0,91,-99.99,,,-99.99,,2013-02-28 16:22:00,
2013-02-28 11:32:00,67.0,64.0,29.96,NW,304,4.0,8.0,91,-99.99,,,-99.99,,2013-02-28 16:32:00,
2013-02-28 11:42:00,67.0,64.0,29.96,NW,304,4.0,8.0,91,-99.99,,,-99.99,,2013-02-28 16:42:00,
2013-02-28 11:52:00,67.0,64.0,29.96,NW,304,4.0,8.0,91,-99.99,,,-99.99,,2013-02-28 16:52:00,
2013-02-28 12:02:00,64.0,49.0,30.00,NW,316,12.0,16.0,58,-99.99,,,-99.99,,2013-02-28 17:02:00,
2013-02-28 12:12:00,65.0,51.0,29.99,NW,305,11.0,15.0,60,-99.99,,,-99.99,,2013-02-28 17:12:00,
2013-02-28 12:22:00,65.0,51.0,29.99,NW,305,11.0,15.0,60,-99.99,,,-99.99,,2013-02-28 17:22:00,
2013-02-28 12:32:00,66.0,51.0,29.99,NW,314,12.0,15.0,59,-99.99,,,-99.99,,2013-02-28 17:32:00,
2013-02-28 12:42:00,66.0,51.0,29.99,NW,314,12.0,15.0,59,-99.99,,,-99.99,,2013-02-28 17:42:00,
2013-02-28 12:53:00,66.0,48.0,29.98,NW,309,12.0,16.0,53,-99.99,,,-99.99,,2013-02-28 17:53:00,
2013-02-28 13:02:00,68.0,51.0,29.97,WNW,291,10.0,12.0,55,-99.99,,,-99.99,,2013-02-28 18:02:00,
2013-02-28 13:11:00,68.0,49.0,29.96,NNW,345,8.0,14.0,51,-99.99,,,-99.99,,2013-02-28 18:11:00,
2013-02-28 13:22:00,68.0,49.0,29.96,NNW,345,8.0,14.0,51,-99.99,,,-99.99,,2013-02-28 18:22:00,
2013-02-28 13:32:00,67.0,48.0,29.95,NW,312,11.0,15.0,50,-99.99,,,-99.99,,2013-02-28 18:32:00,
2013-02-28 13:42:00,67.0,49.0,29.95,NNE,25,9.0,14.0,53,-99.99,,,-99.99,,2013-02-28 18:42:00,
2013-02-28 13:52:00,67.0,49.0,29.95,NNE,25,9.0,14.0,53,-99.99,,,-99.99,,2013-02-28 18:52:00,
2013-02-28 14:02:00,68.0,50.0,29.94,NNW,332,7.0,12.0,53,-99.99,,,-99.99,,2013-02-28 19:02:00,
2013-02-28 14:11:00,67.0,49.0,29.94,NNW,343,9.0,13.0,53,-99.99,,,-99.99,,2013-02-28 19:11:00,
2013-02-28 14:22:00,67.0,49.0,29.94,NNW,343,9.0,13.0,53,-99.99,,,-99.99,,2013-02-28 19:22:00,
2013-02-28 14:32:00,66.0,49.0,29.93,WNW,301,7.0,12.0,54,-99.99,,,-99.99,,2013-02-28 19:32:00,
2013-02-28 14:42:00,66.0,49.0,29.93,WNW,301,7.0,12.0,54,-99.99,,,-99.99,,2013-02-28 19:42:00,
2013-02-28 14:52:00,66.0,50.0,29.93,WNW,302,9.0,14.0,57,-99.99,,,-99.99,,2013-02-28 19:52:00,
2013-02-28 15:01:00,67.0,53.0,29.93,WSW,256,8.0,11.0,60,-99.99,,,-99.99,,2013-02-28 20:01:00,
2013-02-28 15:12:00,67.0,53.0,29.93,WSW,256,8.0,11.0,60,-99.99,,,-99.99,,2013-02-28 20:12:00,
2013-02-28 15:22:00,66.0,50.0,29.93,NW,323,10.0,14.0,56,-99.99,,,-99.99,,2013-02-28 20:22:00,
2013-02-28 15:32:00,66.0,50.0,29.92,NW,322,7.0,11.0,57,-99.99,,,-99.99,,2013-02-28 20:32:00,
2013-02-28 15:42:00,66.0,50.0,29.92,NW,322,7.0,11.0,57,-99.99,,,-99.99,,2013-02-28 20:42:00,
2013-02-28 15:52:00,66.0,49.0,29.92,WNW,298,8.0,11.0,55,-99.99,,,-99.99,,2013-02-28 20:52:00,
2013-02-28 16:02:00,67.0,52.0,29.92,WNW,291,8.0,11.0,58,-99.99,,,-99.99,,2013-02-28 21:02:00,
2013-02-28 16:11:00,67.0,52.0,29.92,WNW,291,8.0,11.0,58,-99.99,,,-99.99,,2013-02-28 21:11:00,
2013-02-28 16:22:00,67.0,49.0,29.92,West,267,8.0,11.0,53,-99.99,,,-99.99,,2013-02-28 21:22:00,
2013-02-28 16:32:00,67.0,51.0,29.92,West,260,5.0,9.0,57,-99.99,,,-99.99,,2013-02-28 21:32:00,
2013-02-28 16:42:00,67.0,51.0,29.92,West,260,5.0,9.0,57,-99.99,,,-99.99,,2013-02-28 21:42:00,
2013-02-28 16:52:00,68.0,51.0,29.92,WNW,284,5.0,8.0,54,-99.99,,,-99.99,,2013-02-28 21:52:00,
2013-02-28 17:01:00,68.0,50.0,29.92,West,263,5.0,8.0,52,-99.99,,,-99.99,,2013-02-28 22:01:00,
2013-02-28 17:11:00,68.0,49.0,29.92,West,280,5.0,8.0,50,-99.99,,,-99.99,,2013-02-28 22:11:00,
2013-02-28 17:22:00,68.0,49.0,29.92,West,280,5.0,8.0,50,-99.99,,,-99.99,,2013-02-28 22:22:00,
2013-02-28 17:32:00,68.0,48.0,29.92,West,266,7.0,10.0,48,-99.99,,,-99.99,,2013-02-28 22:32:00,
2013-02-28 17:42:00,68.0,48.0,29.92,West,266,7.0,10.0,48,-99.99,,,-99.99,,2013-02-28 22:42:00,
2013-02-28 17:52:00,68.0,50.0,29.93,West,270,6.0,10.0,53,-99.99,,,-99.99,,2013-02-28 22:52:00,
2013-02-28 18:01:00,67.0,48.0,29.93,WSW,256,8.0,12.0,51,-99.99,,,-99.99,,2013-02-28 23:01:00,
2013-02-28 18:11:00,67.0,48.0,29.93,West,259,5.0,11.0,50,-99.99,,,-99.99,,2013-02-28 23:11:00,
2013-02-28 18:22:00,67.0,48.0,29.93,West,259,5.0,11.0,50,-99.99,,,-99.99,,2013-02-28 23:22:00,
2013-02-28 18:32:00,67.0,46.0,29.93,WSW,248,7.0,12.0,47,-99.99,,,-99.99,,2013-02-28 23:32:00,
2013-02-28 18:42:00,67.0,46.0,29.93,WSW,248,7.0,12.0,47,-99.99,,,-99.99,,2013-02-28 23:42:00,
2013-02-28 18:53:00,67.0,48.0,29.94,WSW,250,10.0,13.0,50,-99.99,,,-99.99,,2013-02-28 23:53:00,
2013-02-28 19:02:00,67.0,49.0,29.94,WSW,253,8.0,10.0,52,-99.99,,,-99.99,,2013-03-01 00:02:00,
2013-02-28 19:11:00,67.0,49.0,29.94,WSW,253,8.0,10.0,52,-99.99,,,-99.99,,2013-03-01 00:11:00,
2013-02-28 19:22:00,67.0,48.0,29.94,West,262,8.0,12.0,51,-99.99,,,-99.99,,2013-03-01 00:22:00,
2013-02-28 19:32:00,67.0,49.0,29.94,West,262,3.0,6.0,52,-99.99,,,-99.99,,2013-03-01 00:32:00,
2013-02-28 19:42:00,67.0,49.0,29.94,West,262,3.0,6.0,52,-99.99,,,-99.99,,2013-03-01 00:42:00,
2013-02-28 19:52:00,67.0,50.0,29.95,SW,232,8.0,10.0,54,-99.99,,,-99.99,,2013-03-01 00:52:00,
2013-02-28 20:01:00,67.0,51.0,29.95,SW,231,7.0,10.0,56,-99.99,,,-99.99,,2013-03-01 01:01:00,
2013-02-28 20:11:00,67.0,52.0,29.95,SSW,205,4.0,9.0,58,-99.99,,,-99.99,,2013-03-01 01:11:00,
2013-02-28 20:21:00,67.0,52.0,29.95,SSW,205,4.0,9.0,58,-99.99,,,-99.99,,2013-03-01 01:21:00,
2013-02-28 20:32:00,67.0,52.0,29.94,SSW,204,3.0,8.0,58,-99.99,,,-99.99,,2013-03-01 01:32:00,
2013-02-28 20:42:00,67.0,52.0,29.94,SSW,204,3.0,8.0,58,-99.99,,,-99.99,,2013-03-01 01:42:00,
2013-02-28 20:51:00,67.0,51.0,29.94,SSW,204,8.0,11.0,57,-99.99,,,-99.99,,2013-03-01 01:51:00,
2013-02-28 21:01:00,66.0,51.0,29.95,SW,222,9.0,12.0,58,-99.99,,,-99.99,,2013-03-01 02:01:00,
2013-02-28 21:11:00,67.0,52.0,29.95,SSW,208,5.0,9.0,59,-99.99,,,-99.99,,2013-03-01 02:11:00,
2013-02-28 21:21:00,67.0,52.0,29.95,SSW,208,5.0,9.0,59,-99.99,,,-99.99,,2013-03-01 02:21:00,
2013-02-28 21:32:00,66.0,51.0,29.95,SW,215,10.0,12.0,58,-99.99,,,-99.99,,2013-03-01 02:32:00,
2013-02-28 21:42:00,66.0,51.0,29.95,SW,215,10.0,12.0,58,-99.99,,,-99.99,,2013-03-01 02:42:00,
2013-02-28 21:52:00,66.0,50.0,29.95,SSW,212,9.0,11.0,57,-99.99,,,-99.99,,2013-03-01 02:52:00,
2013-02-28 22:02:00,66.0,49.0,29.95,SSW,210,9.0,11.0,55,-99.99,,,-99.99,,2013-03-01 03:02:00,
2013-02-28 22:11:00,66.0,47.0,29.95,SW,217,10.0,12.0,50,-99.99,,,-99.99,,2013-03-01 03:11:00,
2013-02-28 22:21:00,66.0,47.0,29.95,SW,217,10.0,12.0,50,-99.99,,,-99.99,,2013-03-01 03:21:00,
2013-02-28 22:32:00,66.0,48.0,29.96,WSW,239,11.0,14.0,52,-99.99,,,-99.99,,2013-03-01 03:32:00,
2013-02-28 22:42:00,66.0,48.0,29.96,WSW,239,11.0,14.0,52,-99.99,,,-99.99,,2013-03-01 03:42:00,
2013-02-28 22:51:00,66.0,47.0,29.95,SW,232,11.0,13.0,50,-99.99,,,-99.99,,2013-03-01 03:51:00,
2013-02-28 23:01:00,66.0,47.0,29.95,WSW,242,10.0,14.0,51,-99.99,,,-99.99,,2013-03-01 04:01:00,
2013-02-28 23:11:00,66.0,47.0,29.95,WSW,242,10.0,14.0,51,-99.99,,,-99.99,,2013-03-01 04:11:00,
2013-02-28 23:21:00,66.0,48.0,29.95,WSW,239,10.0,17.0,53,-99.99,,,-99.99,,2013-03-01 04:21:00,
2013-02-28 23:32:00,66.0,50.0,29.95,WSW,242,12.0,16.0,56,-99.99,,,-99.99,,2013-03-01 04:32:00,
2013-02-28 23:42:00,66.0,50.0,29.95,WSW,242,12.0,16.0,56,-99.99,,,-99.99,,2013-03-01 04:42:00,
2013-02-28 23:52:00,66.0,51.0,29.94,SW,236,9.0,15.0,59,-99.99,,,-99.99,,2013-03-01 04:52:00,